• In Moldova, Republic
  • List of Countries
  • For 7 days
  • Water Temperature
  • Satellite Maps
  • Weather Map
  • Weather Widgets
  • user-avatar
    Login

    Hourly Weather Kaprun

    Today, 20 November, Monday

    Time Temperature Precipitation Wind Pressure Humidity
    00:00 -10°C° 0.4 mm 2 mps 593 mmHg 93%
    01:00 -10°C° 0 mm 2 mps 593 mmHg 94%
    02:00 -12°C° 0.2 mm 2 mps 593 mmHg 93%
    03:00 -12°C° 0.2 mm 2 mps 593 mmHg 93%
    04:00 -12°C° 0.2 mm 2 mps 593 mmHg 93%
    05:00 -13°C° 0.1 mm 2 mps 593 mmHg 93%
    06:00 -13°C° 0.1 mm 2 mps 593 mmHg 92%
    07:00 -13°C° 0 mm 3 mps 593 mmHg 91%
    08:00 -10°C° 0 mm 2 mps 594 mmHg 89%
    09:00 -9°C° 0 mm 2 mps 594 mmHg 86%
    10:00 -8°C° 0 mm 2 mps 595 mmHg 84%
    11:00 -7°C° 0 mm 2 mps 595 mmHg 81%
    12:00 -6°C° 0 mm 2 mps 595 mmHg 77%
    13:00 -5°C° 0 mm 2 mps 595 mmHg 74%
    14:00 -6°C° 0.2 mm 2 mps 595 mmHg 79%
    15:00 -4°C° 0.2 mm 1 mps 595 mmHg 84%
    16:00 -6°C° 0.2 mm 1 mps 594 mmHg 88%
    17:00 -6°C° 0.5 mm 1 mps 594 mmHg 90%
    18:00 -6°C° 0.5 mm 1 mps 594 mmHg 91%
    19:00 -6°C° 0.5 mm 1 mps 594 mmHg 93%
    20:00 -6°C° 0.6 mm 1 mps 594 mmHg 92%
    21:00 -6°C° 0.6 mm 1 mps 594 mmHg 92%
    22:00 -4°C° 0.6 mm 1 mps 594 mmHg 92%
    23:00 -6°C° 0.3 mm 2 mps 594 mmHg 91%

    Tomorrow, 21 November, Tuesday

    Time Temperature Precipitation Wind Pressure Humidity
    00:00 -6°C° 0.3 mm 2 mps 594 mmHg 91%
    01:00 -6°C° 0.3 mm 2 mps 594 mmHg 90%
    02:00 -6°C° 0.2 mm 2 mps 594 mmHg 89%
    03:00 -6°C° 0.2 mm 2 mps 594 mmHg 89%
    04:00 -6°C° 0.2 mm 2 mps 594 mmHg 89%
    05:00 -5°C° 0.5 mm 2 mps 594 mmHg 90%
    06:00 -5°C° 0.5 mm 2 mps 594 mmHg 91%
    07:00 -4°C° 0.5 mm 2 mps 594 mmHg 93%
    08:00 -4°C° 0.4 mm 2 mps 595 mmHg 93%
    09:00 -3°C° 0.4 mm 2 mps 595 mmHg 93%
    10:00 -2°C° 0.4 mm 2 mps 596 mmHg 93%
    11:00 -2°C° 0.2 mm 2 mps 596 mmHg 93%
    12:00 -1°C° 0.2 mm 2 mps 596 mmHg 93%
    13:00 -1°C° 0.2 mm 2 mps 596 mmHg 94%
    14:00 -1°C° 0.4 mm 2 mps 596 mmHg 94%
    15:00 -2°C° 0.4 mm 2 mps 596 mmHg 94%
    16:00 0°C° 0.4 mm 1 mps 595 mmHg 94%
    17:00 -2°C° 0.3 mm 2 mps 595 mmHg 94%
    18:00 -3°C° 0.3 mm 2 mps 596 mmHg 93%
    19:00 -3°C° 0.3 mm 2 mps 596 mmHg 93%
    20:00 -1°C° 0 mm 1 mps 595 mmHg 92%
    21:00 -2°C° 0 mm 1 mps 595 mmHg 91%
    22:00 -2°C° 0 mm 1 mps 595 mmHg 89%
    23:00 -3°C° 0 mm 1 mps 595 mmHg 88%

    Day after tomorrow, 22 November, Wednesday

    Time Temperature Precipitation Wind Pressure Humidity
    00:00 -3°C° 0 mm 1 mps 595 mmHg 86%
    01:00 -3°C° 0 mm 1 mps 595 mmHg 84%
    02:00 -3°C° 0 mm 1 mps 595 mmHg 83%
    03:00 -3°C° 0 mm 1 mps 594 mmHg 82%
    04:00 -3°C° 0 mm 1 mps 594 mmHg 82%
    05:00 -3°C° 0 mm 1 mps 594 mmHg 81%
    06:00 -4°C° 0 mm 1 mps 594 mmHg 80%
    07:00 -4°C° 0 mm 1 mps 594 mmHg 80%
    08:00 -2°C° 0 mm 1 mps 595 mmHg 81%
    09:00 -1°C° 0 mm 1 mps 595 mmHg 83%
    10:00 +1°C° 0 mm 1 mps 596 mmHg 84%
    11:00 +2°C° 0 mm 1 mps 596 mmHg 87%
    12:00 +2°C° 0 mm 1 mps 596 mmHg 89%
    13:00 +3°C° 0 mm 1 mps 596 mmHg 92%
    14:00 +2°C° 0 mm 1 mps 596 mmHg 90%
    15:00 +1°C° 0 mm 1 mps 595 mmHg 89%
    16:00 0°C° 0 mm 1 mps 595 mmHg 87%
    17:00 -1°C° 0 mm 1 mps 594 mmHg 85%
    18:00 -4°C° 0 mm 2 mps 594 mmHg 83%
    19:00 -5°C° 0 mm 2 mps 594 mmHg 80%
    20:00 -5°C° 0 mm 2 mps 594 mmHg 79%
    21:00 -5°C° 0 mm 2 mps 594 mmHg 78%
    22:00 -5°C° 0 mm 2 mps 594 mmHg 77%
    23:00 -5°C° 0 mm 2 mps 594 mmHg 77%

    23 November, Thursday

    Time Temperature Precipitation Wind Pressure Humidity
    00:00 -5°C° 0 mm 2 mps 594 mmHg 77%
    01:00 -5°C° 0 mm 2 mps 594 mmHg 77%
    02:00 -5°C° 0 mm 2 mps 594 mmHg 77%
    03:00 -6°C° 0 mm 2 mps 594 mmHg 78%
    04:00 -6°C° 0 mm 2 mps 594 mmHg 78%
    05:00 -6°C° 0 mm 2 mps 594 mmHg 77%
    06:00 -6°C° 0 mm 2 mps 594 mmHg 76%
    07:00 -6°C° 0 mm 2 mps 594 mmHg 75%
    08:00 -2°C° 0 mm 1 mps 595 mmHg 76%
    09:00 -1°C° 0 mm 1 mps 596 mmHg 76%
    10:00 +1°C° 0 mm 1 mps 597 mmHg 76%
    11:00 +2°C° 0 mm 1 mps 597 mmHg 79%
    12:00 +3°C° 0 mm 1 mps 598 mmHg 82%
    13:00 +4°C° 0 mm 1 mps 598 mmHg 85%
    14:00 +2°C° 0 mm 1 mps 598 mmHg 80%
    15:00 +1°C° 0 mm 1 mps 597 mmHg 75%
    16:00 0°C° 0 mm 1 mps 597 mmHg 70%
    17:00 -1°C° 0 mm 1 mps 597 mmHg 69%
    18:00 -2°C° 0 mm 1 mps 597 mmHg 68%
    19:00 -3°C° 0 mm 1 mps 597 mmHg 67%
    20:00 -3°C° 0 mm 1 mps 598 mmHg 68%
    21:00 -3°C° 0 mm 1 mps 598 mmHg 70%
    22:00 -3°C° 0 mm 1 mps 598 mmHg 71%
    23:00 -3°C° 0 mm 1 mps 598 mmHg 71%

    24 November, Friday

    Time Temperature Precipitation Wind Pressure Humidity
    00:00 -3°C° 0 mm 1 mps 598 mmHg 71%
    01:00 -3°C° 0 mm 1 mps 598 mmHg 72%
    02:00 -3°C° 0 mm 1 mps 598 mmHg 71%
    03:00 -3°C° 0 mm 1 mps 598 mmHg 70%
    04:00 -5°C° 0 mm 2 mps 598 mmHg 70%
    05:00 -5°C° 0 mm 2 mps 598 mmHg 69%
    06:00 -5°C° 0 mm 2 mps 598 mmHg 67%
    07:00 -5°C° 0 mm 2 mps 598 mmHg 66%
    08:00 -3°C° 0 mm 2 mps 599 mmHg 68%
    09:00 -2°C° 0 mm 2 mps 599 mmHg 69%
    10:00 -1°C° 0 mm 2 mps 600 mmHg 70%
    11:00 +1°C° 0 mm 2 mps 600 mmHg 73%
    12:00 +2°C° 0 mm 2 mps 600 mmHg 76%
    13:00 +3°C° 0 mm 2 mps 600 mmHg 79%
    14:00 +1°C° 0 mm 2 mps 599 mmHg 78%
    15:00 -1°C° 0 mm 2 mps 599 mmHg 76%
    16:00 -2°C° 0 mm 2 mps 598 mmHg 74%
    17:00 -3°C° 0 mm 2 mps 598 mmHg 72%
    18:00 -4°C° 0 mm 2 mps 598 mmHg 70%
    19:00 -4°C° 0 mm 2 mps 598 mmHg 68%
    20:00 -4°C° 0 mm 2 mps 598 mmHg 67%
    21:00 -4°C° 0 mm 2 mps 598 mmHg 66%
    22:00 -4°C° 0 mm 2 mps 598 mmHg 66%
    23:00 -4°C° 0 mm 2 mps 598 mmHg 65%

    25 November, Saturday

    Time Temperature Precipitation Wind Pressure Humidity
    00:00 -4°C° 0 mm 2 mps 598 mmHg 65%
    01:00 -4°C° 0 mm 2 mps 598 mmHg 65%
    02:00 -5°C° 0 mm 2 mps 597 mmHg 65%
    03:00 -5°C° 0 mm 2 mps 597 mmHg 65%
    04:00 -5°C° 0 mm 2 mps 597 mmHg 65%
    05:00 -5°C° 0 mm 2 mps 597 mmHg 65%
    06:00 -5°C° 0 mm 2 mps 597 mmHg 66%
    07:00 -5°C° 0 mm 2 mps 597 mmHg 66%
    08:00 -3°C° 0 mm 2 mps 597 mmHg 67%
    09:00 -2°C° 0 mm 2 mps 598 mmHg 69%
    10:00 -1°C° 0 mm 2 mps 598 mmHg 70%
    11:00 +1°C° 0 mm 2 mps 598 mmHg 73%
    12:00 +1°C° 0 mm 2 mps 598 mmHg 75%
    13:00 +2°C° 0 mm 2 mps 597 mmHg 77%
    14:00 +1°C° 0 mm 2 mps 597 mmHg 79%
    15:00 -1°C° 0 mm 2 mps 597 mmHg 81%
    16:00 -2°C° 0 mm 2 mps 596 mmHg 83%
    17:00 -3°C° 0 mm 2 mps 596 mmHg 82%
    18:00 -4°C° 0 mm 2 mps 596 mmHg 82%
    19:00 -2°C° 0 mm 1 mps 596 mmHg 82%
    20:00 -2°C° 0 mm 1 mps 596 mmHg 82%
    21:00 -3°C° 0 mm 1 mps 596 mmHg 82%
    22:00 -3°C° 0 mm 1 mps 596 mmHg 81%
    23:00 -3°C° 0 mm 1 mps 596 mmHg 82%
    Show more